Regional Weather Roundup
Issued by NWS

Home | Current Version | Previous Version | Graphics & Text | Print | Product List | Glossary On
Versions: 1 2 3 4 5 6 7 8 9 10 11 12 13 14 15 16 17 18 19 20 21 22 23 24 25 26 27 28 29 30 31 32 33 34 35 36 37 38 39 40 41 42 43 44 45 46 47 48 49 50
000
ASUS45 KTFX 020519
RWRMT
MONTANA REGIONAL WEATHER ROUNDUP
NATIONAL WEATHER SERVICE GREAT FALLS MT
1100 PM MDT TUE SEP 01 2015

NOTE: "FAIR" INDICATES FEW OR NO CLOUDS BELOW 12000 FEET WITH NO
SIGNIFICANT WEATHER AND/OR OBSTRUCTIONS TO VISIBILITY.

MTZ001>007-043-020600-
WEST OF THE DIVIDE

CITY           SKY/WX    TMP DP  RH WIND       PRES   REMARKS
KALISPELL      MOCLDY    56  39  53 CALM      29.76S
MISSOULA       PTCLDY    66  35  31 NW8       29.77S
BUTTE          PTCLDY    56  37  49 E3        29.90R
MULLAN PASS    CLOUDY    53  30  41 VRB5      29.90F
DEER LODGE       N/A     61  34  36 CALM      29.88S
EUREKA           N/A     57  43  58 SE5         N/A
HAMILTON         N/A     61  43  51 S5        29.78S
LIBBY            N/A     61  34  36 S3        29.74S
PLAINS           N/A     59  36  42 W1        29.79S
RONAN            N/A     57  40  53 CALM      29.84S
THOMPSON FALLS   N/A     63  37  37 CALM      29.82R
$$

MTZ008-052>055-020600-
SOUTHWEST MONTANA

CITY           SKY/WX    TMP DP  RH WIND       PRES   REMARKS
BOZEMAN        PTCLDY    66  35  31 SE10      29.81F
DILLON         PTCLDY    61  31  32 SW13      29.86R
W YELLOWSTONE  PTCLDY    48  27  43 CALM      30.05S
THREE FORKS      N/A     66  28  24 NE2       29.82F
TWIN BRIDGES     N/A     66  29  25 SE5       29.86R
$$

MTZ009-010-012-014-046-048-049-054-020600-
EAST SLOPES AND CENTRAL MONTANA

CITY           SKY/WX    TMP DP  RH WIND       PRES   REMARKS
CUT BANK       MOCLDY    56  31  38 W9        29.77S
GREAT FALLS    CLEAR     66  32  28 SE8       29.77S
MALMSTROM AFB  MOCLDY    63  32  31 S10       29.77S
HELENA         CLEAR     67  34  29 W8        29.79S
CONRAD           N/A     49  32  52 SE2       29.82S
$$

MTZ011-013-016-021-045-047-050-051-020600-
NORTH CENTRAL MONTANA

CITY           SKY/WX    TMP DP  RH WIND       PRES   REMARKS
HAVRE          PTCLDY    61  37  41 CALM      29.71F
LEWISTOWN      MOCLDY    65  39  38 E10       29.83F
N BAR RANCH      N/A     55  39  54 W8        29.90S
CHINOOK          N/A     61  39  44 E3        29.72F
FORT BENTON      N/A     64  34  32 CALM      29.74F
$$

MTZ017>020-022>027-061-062-020600-
NORTHEAST MONTANA

CITY           SKY/WX    TMP DP  RH WIND       PRES   REMARKS
GLASGOW        CLEAR     66  41  40 E13       29.76F
JORDAN           N/A     58  34  40 CALM      29.78S
SIDNEY         CLEAR     61  39  44 NW6       29.78S
WOLF POINT     PTCLDY    62  44  51 E5        29.77S
MALTA            N/A     56  39  52 CALM      29.74S
PLENTYWOOD       N/A     64  39  39 NE9       29.79F
POPLAR           N/A     64  41  42 N3        29.78S
SCOBEY           N/A     54  39  56 CALM      29.80F
$$

MTZ028>42-056>058-020600-
SOUTHCENTRAL AND SOUTHEAST MONTANA

CITY           SKY/WX    TMP DP  RH WIND       PRES   REMARKS
BAKER          CLEAR     63  50  62 CALM      29.84S
BILLINGS       CLEAR     72  30  21 N5        29.80S
LIVINGSTON     PTCLDY    70  27  20 E7        29.86S
MILES CITY     CLEAR     69  36  29 NE10      29.77F
EKALAKA          N/A     73  38  28 SE10      29.85F
FORSYTH          N/A     70  34  26 SE3       29.76F
LAUREL           N/A     70  30  22 N2        29.80F
ROUNDUP          N/A     68  32  26 N1        29.75F
$$

REGIONAL REPORTS...DAKOTAS

CITY           SKY/WX    TMP DP  RH WIND       PRES   REMARKS
WILLISTON      CLEAR     66  40  38 N7        29.79F
MINOT          CLEAR     69  59  70 SE5       29.77S
DICKINSON      CLEAR     63  55  75 S8        29.80F
BEACH            N/A     55  50  82 SE6       29.84S
CROSBY           N/A     55  48  76 SW5       29.80F
BISMARCK       CLEAR     73  67  81 E6        29.79F
GRAND FORKS    CLEAR     69  57  65 SE6       29.82F
FARGO          CLEAR     75  70  84 SE10      29.83S
BUFFALO SD       N/A     70  55  59 S5        29.79F
RAPID CITY     CLEAR     63  54  72 NW6       29.88S
$$

REGIONAL REPORTS...WYOMING/IDAHO/WASHINGTON

CITY           SKY/WX    TMP DP  RH WIND       PRES   REMARKS
GILLETTE       PTCLDY    70  34  26 S12       29.91S
SHERIDAN       CLEAR     62  40  44 N7        29.84F
BUFFALO WY     PTCLDY    76  27  16 S3        29.94F
CODY           CLEAR     72  30  21 SW9       29.93S
YELLOWSTONE LA   N/A     45  30  55 NW3       30.17F
IDAHO FALLS    CLEAR     59  44  57 CALM      29.90F
SALMON         CLEAR     63  32  31 E3        29.80S
BOISE          CLEAR     72  40  31 S5        29.73F
SPOKANE        CLOUDY    65  44  46 S5        29.75F
$$

REGIONAL REPORTS...ALBERTA

CITY           SKY/WX    TMP DP  RH WIND       PRES   REMARKS
EDMONTON       LGT RAIN  50  43  76 S8        29.69R FOG
CALGARY        MOCLDY    57  37  47 S7        29.65F
LETHBRIDGE     CLEAR     55  37  50 W10       29.71F
MEDICINE HAT   CLEAR     57  41  54 SW3       29.69F
WATERTON GATE    N/A     48  37  66 NE3         N/A
CARDSTON         N/A     59  34  38 SW6         N/A
MILK RIVER       N/A     59  36  41 NW9         N/A
$$

REGIONAL REPORTS...SASKATCHEWAN

CITY           SKY/WX    TMP DP  RH WIND       PRES   REMARKS
SWIFT CURRENT  CLEAR     57  37  47 SE8       29.75S
REGINA         PTCLDY    61  46  59 E6        29.76F
SASKATOON      PTCLDY    55  45  67 E6        29.75S
CYPRESS HILLS    N/A     59  25  27 S3          N/A
VAL MARIE        N/A     46  34  61 NE3         N/A
ROCKGLEN         N/A     61  41  48 S5          N/A
ASSINIBOIA       N/A     52  45  76 N8          N/A
$$


USA.gov is the U.S. government's official web portal to all federal, state and local government web resources and services.